Augusta, GA

4:03 PM EST on January 18, 2017 (GMT -0500)
Daniel

Weather History for KDNL - January, 2013

Change the Weather History Date:

Monday, January 7, 2013

  Actual Average Record
Temperature  
Mean Temperature 46 °F -  
Max Temperature 56 °F 55 °F 73 °F (1998)
Min Temperature 36 °F 37 °F 13 °F (2014)
Degree Days  
Heating Degree Days 19    
Month to date heating degree days 113  
Moisture  
Dew Point 32 °F    
Average Humidity 63    
Maximum Humidity 92    
Minimum Humidity 35    
Precipitation  
Precipitation 0.00 in - - ()
Month to date precipitation 0.08  
Year to date precipitation 0.08  
Sea Level Pressure  
Sea Level Pressure 30.34 in    
Wind  
Wind Speed 7 mph (NNE)    
Max Wind Speed 16 mph    
Max Gust Speed 22 mph    
Visibility 10 miles    
Events      
Averages and records for this station are not official NWS values.
T = Trace of Precipitation, MM = Missing Value Source: NWS Daily Summary

Daily Weather History Graph

Daily Weather History Graph

Search for Another Location

Airport or City:

Trip Planner

Search our weather history database for the weather conditions in past years. The results will help you decide how hot, cold, wet, or windy it might be!

Date:

Astronomy

Jan. 07, 2013 Rise Set
Actual Time 7:33 AM EST 5:36 PM EST
Civil Twilight 7:05 AM EST 6:03 PM EST
Nautical Twilight 6:34 AM EST 6:34 PM EST
Astronomical Twilight 6:04 AM EST 7:04 PM EST
Moon 2:58 AM EST (1/7) 1:43 PM EST (1/7)
Length of Visible Light 10h 57m
Length of Day
10h 03m
Waning Crescent, 23% of the Moon is Illuminated
Jan 7
Waning Crescent
Jan 11
New
Jan 18
First Quarter
Jan 26
Full
Feb 3
Last Quarter

Hourly Weather History & Observations

Time (EST) Temp. Windchill Dew Point Humidity Pressure Visibility Wind Dir Wind Speed Gust Speed Precip Events Conditions
12:53 AM 41.0 °F 38.0 °F 34.0 °F 76% 30.24 in 10.0 mi NW 4.6 mph - N/A   Clear
1:53 AM 39.9 °F 37.8 °F 34.0 °F 79% 30.25 in 10.0 mi NW 3.5 mph - N/A   Clear
2:53 AM 37.9 °F 35.5 °F 33.1 °F 83% 30.25 in 10.0 mi NW 3.5 mph - N/A   Clear
3:53 AM 37.9 °F 33.5 °F 33.1 °F 83% 30.25 in 10.0 mi NNW 5.8 mph - N/A   Clear
4:53 AM 36.0 °F 31.1 °F 33.1 °F 89% 30.27 in 10.0 mi NNW 5.8 mph - N/A   Clear
5:53 AM 37.0 °F 31.0 °F 33.1 °F 86% 30.29 in 10.0 mi NNW 8.1 mph - N/A   Clear
6:53 AM 36.0 °F 30.3 °F 33.1 °F 89% 30.32 in 10.0 mi North 6.9 mph - N/A   Clear
7:53 AM 37.0 °F 31.0 °F 33.1 °F 86% 30.35 in 10.0 mi NNW 8.1 mph - N/A   Clear
8:53 AM 39.9 °F 34.5 °F 33.1 °F 77% 30.36 in 10.0 mi NNE 8.1 mph - N/A   Clear
9:53 AM 43.0 °F 38.8 °F 32.0 °F 65% 30.39 in 10.0 mi NE 6.9 mph - N/A   Clear
10:53 AM 48.0 °F - 30.9 °F 52% 30.41 in 10.0 mi NE 9.2 mph - N/A   Clear
11:53 AM 50.0 °F - 30.0 °F 46% 30.39 in 10.0 mi ENE 11.5 mph - N/A   Clear
12:53 PM 53.1 °F - 28.9 °F 40% 30.35 in 10.0 mi ENE 12.7 mph - N/A   Clear
1:53 PM 55.0 °F - 28.9 °F 37% 30.32 in 10.0 mi NE 8.1 mph - N/A   Clear
2:53 PM 54.0 °F - 28.0 °F 37% 30.32 in 10.0 mi East 10.4 mph - N/A   Clear
3:53 PM 54.0 °F - 28.9 °F 38% 30.34 in 10.0 mi East 5.8 mph - N/A   Clear
4:53 PM 54.0 °F - 28.9 °F 38% 30.36 in 10.0 mi NE 6.9 mph - N/A   Clear
5:53 PM 50.0 °F - 30.0 °F 46% 30.37 in 10.0 mi ENE 5.8 mph - N/A   Clear
6:53 PM 48.9 °F - 30.9 °F 50% 30.38 in 10.0 mi ENE 5.8 mph - N/A   Clear
7:53 PM 46.9 °F - 32.0 °F 56% 30.37 in 10.0 mi ENE 6.9 mph - N/A   Clear
8:53 PM 46.0 °F 43.1 °F 32.0 °F 58% 30.38 in 10.0 mi East 5.8 mph - N/A   Clear
9:53 PM 44.1 °F 42.5 °F 32.0 °F 63% 30.38 in 10.0 mi NE 3.5 mph - N/A   Clear
10:53 PM 43.0 °F 40.3 °F 32.0 °F 65% 30.39 in 10.0 mi NE 4.6 mph - N/A   Clear
11:53 PM 42.1 °F 39.2 °F 32.0 °F 67% 30.38 in 10.0 mi NNE 4.6 mph - N/A   Clear